Terminal Aerodrome Forecast
Issued by NWS Albany, NY

Home | Current Version | Previous Version | Text Only | Print | Product List | Glossary On
Versions: 1 2 3 4 5 6 7 8 9 10 11 12 13 14 15 16 17 18 19 20 21
000
FTUS41 KALY 230500
TAFGFL
TAF
KGFL 230520Z 2306/2406 20005KT P6SM SKC
      TEMPO 2308/2310 2SM BR BKN008
     FM231300 19006KT 6SM HZ SCT050 SCT250
     FM231600 21008KT P6SM SCT050 SCT250
     FM231800 22008KT P6SM BKN050 BKN100 PROB30 2318/2324 3SM TSRA
      BKN015CB BKN030
     FM240000 25007KT P6SM BKN050 BKN100=

USA.gov is the U.S. government's official web portal to all federal, state and local government web resources and services.